| time (UTC) | temp F | wind direction | speed MPH | gust MPH | rain 1hr in | rain 24hr in | rain mn in | humidity % | barometer mb |
| 20260902094601 | 73 | 135 | 3.0 | 9.0 | 0.00 | 0.00 | 0.00 | 57 | 1025.7 |
| 20260902093107 | 73 | 146 | 2.0 | 6.0 | 0.00 | 0.00 | 0.00 | 58 | 1025.7 |
| 20260902091606 | 72 | 263 | 2.0 | 6.0 | 0.00 | 0.00 | 0.00 | 58 | 1025.7 |
| 20260902090120 | 71 | 193 | 2.0 | 7.0 | 0.00 | 0.00 | 0.00 | 58 | 1025.5 |
| 20260902084614 | 72 | 78 | 0.0 | 3.0 | 0.00 | 0.00 | 0.00 | 56 | 1025.5 |
| 20260902083106 | 71 | 98 | 2.0 | 4.0 | 0.00 | 0.00 | 0.00 | 60 | 1025.2 |
| 20260902081602 | 70 | 0 | 1.0 | 7.0 | 0.00 | 0.00 | 0.00 | 59 | 1025.0 |
| 20260902080105 | 68 | 0 | 1.0 | 4.0 | 0.00 | 0.00 | 0.00 | 71 | 1024.9 |
| 20260902074613 | 64 | 0 | 0.0 | 0.0 | 0.00 | 0.00 | 0.00 | 76 | 1024.8 |
| 20260902073104 | 60 | 0 | 0.0 | 0.0 | 0.00 | 0.00 | 0.00 | 82 | 1024.7 |
| 20260902071613 | 57 | 0 | 0.0 | 0.0 | 0.00 | 0.00 | 0.00 | 85 | 1024.6 |
| 20260902070109 | 55 | 0 | 0.0 | 0.0 | 0.00 | 0.00 | 0.00 | 89 | 1024.7 |
| 20260902064604 | 54 | 0 | 0.0 | 0.0 | 0.00 | 0.00 | 0.00 | 90 | 1024.5 |
| 20260902063103 | 53 | 0 | 0.0 | 0.0 | 0.00 | 0.00 | 0.00 | 90 | 1024.2 |
| 20260902060109 | 52 | 0 | 0.0 | 0.0 | 0.00 | 0.00 | 0.00 | 91 | 1024.1 |
| 20260902054613 | 51 | 0 | 0.0 | 0.0 | 0.00 | 0.00 | 0.00 | 90 | 1024.0 |
| 20260902053109 | 51 | 0 | 0.0 | 0.0 | 0.00 | 0.00 | 0.00 | 90 | 1023.8 |
| 20260902051606 | 51 | 0 | 0.0 | 0.0 | 0.00 | 0.00 | 0.00 | 90 | 1023.7 |
| 20260902050107 | 52 | 0 | 0.0 | 0.0 | 0.00 | 0.00 | 0.00 | 90 | 1023.5 |
| 20260902044607 | 52 | 0 | 0.0 | 0.0 | 0.00 | 0.00 | 0.00 | 89 | 1023.5 |
| 20260902043109 | 52 | 0 | 0.0 | 0.0 | 0.00 | 0.00 | 0.00 | 89 | 1023.5 |
| 20260902041604 | 52 | 0 | 0.0 | 0.0 | 0.00 | 0.00 | 0.00 | 89 | 1023.5 |
| 20260902040109 | 53 | 0 | 0.0 | 0.0 | 0.00 | 0.00 | 0.00 | 89 | 1023.7 |
| 20260902034606 | 53 | 0 | 0.0 | 0.0 | 0.00 | 0.00 | 0.00 | 89 | 1023.7 |
| 20260902033105 | 53 | 0 | 0.0 | 0.0 | 0.00 | 0.00 | 0.00 | 89 | 1023.6 |
| 20260902031608 | 53 | 0 | 0.0 | 0.0 | 0.00 | 0.00 | 0.00 | 88 | 1023.4 |
| 20260902024606 | 54 | 0 | 0.0 | 0.0 | 0.00 | 0.00 | 0.00 | 88 | 1023.5 |
| 20260902023111 | 54 | 0 | 0.0 | 0.0 | 0.00 | 0.00 | 0.00 | 87 | 1023.6 |
| 20260902021604 | 54 | 0 | 0.0 | 0.0 | 0.00 | 0.00 | 0.00 | 86 | 1023.6 |
| 20260902020104 | 54 | 0 | 0.0 | 0.0 | 0.00 | 0.00 | 0.00 | 87 | 1023.6 |
| 20260902014603 | 55 | 0 | 0.0 | 0.0 | 0.00 | 0.00 | 0.00 | 86 | 1023.3 |
| 20260902013107 | 55 | 0 | 0.0 | 0.0 | 0.00 | 0.00 | 0.00 | 85 | 1023.4 |
| 20260902011613 | 55 | 0 | 0.0 | 0.0 | 0.00 | 0.00 | 0.00 | 85 | 1023.4 |
| 20260902010117 | 56 | 0 | 0.0 | 0.0 | 0.00 | 0.00 | 0.00 | 83 | 1023.4 |
| 20260902004607 | 57 | 0 | 0.0 | 0.0 | 0.00 | 0.00 | 0.00 | 83 | 1023.6 |
| 20260902003107 | 57 | 0 | 0.0 | 0.0 | 0.00 | 0.00 | 0.00 | 82 | 1023.5 |
| 20260902001622 | 58 | 0 | 0.0 | 0.0 | 0.00 | 0.00 | 0.00 | 81 | 1023.5 |
| 20260902000107 | 58 | 0 | 0.0 | 0.0 | 0.00 | 0.00 | 0.00 | 81 | 1023.6 |
| 20260901234604 | 59 | 0 | 0.0 | 0.0 | 0.00 | 0.00 | 0.00 | 80 | 1023.6 |
| 20260901233105 | 60 | 0 | 0.0 | 0.0 | 0.00 | 0.00 | 0.00 | 80 | 1023.5 |
| 20260901231608 | 60 | 0 | 0.0 | 0.0 | 0.00 | 0.00 | 0.00 | 80 | 1023.5 |
| 20260901224600 | 60 | 0 | 0.0 | 0.0 | 0.00 | 0.00 | 0.00 | 79 | 1023.7 |
| 20260901223105 | 60 | 0 | 0.0 | 0.0 | 0.00 | 0.00 | 0.00 | 78 | 1023.7 |
| 20260901221624 | 60 | 0 | 0.0 | 0.0 | 0.00 | 0.00 | 0.00 | 78 | 1023.9 |
| 20260901220122 | 61 | 0 | 0.0 | 0.0 | 0.00 | 0.00 | 0.00 | 77 | 1023.8 |
| 20260901214606 | 61 | 0 | 0.0 | 0.0 | 0.00 | 0.00 | 0.00 | 77 | 1023.8 |
| 20260901213107 | 61 | 0 | 0.0 | 0.0 | 0.00 | 0.00 | 0.00 | 76 | 1023.7 |
| 20260901211609 | 61 | 0 | 0.0 | 0.0 | 0.00 | 0.00 | 0.00 | 74 | 1023.7 |
| 20260901204606 | 62 | 0 | 0.0 | 0.0 | 0.00 | 0.00 | 0.00 | 71 | 1023.7 |
| 20260901203107 | 63 | 0 | 0.0 | 0.0 | 0.00 | 0.00 | 0.00 | 69 | 1023.7 |
| 20260901201603 | 64 | 0 | 0.0 | 0.0 | 0.00 | 0.00 | 0.00 | 66 | 1023.4 |
| 20260901200107 | 65 | 0 | 0.0 | 0.0 | 0.00 | 0.00 | 0.00 | 64 | 1023.2 |
| 20260901194603 | 66 | 0 | 0.0 | 0.0 | 0.00 | 0.00 | 0.00 | 61 | 1023.1 |
| 20260901193108 | 67 | 0 | 0.0 | 0.0 | 0.00 | 0.00 | 0.00 | 59 | 1022.9 |
| 20260901191617 | 68 | 0 | 0.0 | 0.0 | 0.00 | 0.00 | 0.00 | 55 | 1022.6 |
| 20260901190126 | 69 | 0 | 0.0 | 0.0 | 0.00 | 0.00 | 0.00 | 52 | 1022.4 |
| 20260901184625 | 70 | 0 | 0.0 | 0.0 | 0.00 | 0.00 | 0.00 | 50 | 1022.2 |
| 20260901183107 | 71 | 0 | 0.0 | 0.0 | 0.00 | 0.00 | 0.00 | 50 | 1021.9 |
| 20260901181611 | 72 | 0 | 0.0 | 0.0 | 0.00 | 0.00 | 0.00 | 49 | 1022.0 |
| 20260901180110 | 72 | 0 | 0.0 | 0.0 | 0.00 | 0.00 | 0.00 | 49 | 1021.9 |
| 20260901174614 | 73 | 0 | 0.0 | 0.0 | 0.00 | 0.00 | 0.00 | 47 | 1021.9 |
| 20260901173111 | 74 | 0 | 0.0 | 0.0 | 0.00 | 0.00 | 0.00 | 47 | 1021.9 |
| 20260901171607 | 75 | 0 | 0.0 | 0.0 | 0.00 | 0.00 | 0.00 | 43 | 1021.8 |
| 20260901170109 | 76 | 266 | 0.0 | 1.0 | 0.00 | 0.00 | 0.00 | 42 | 1021.9 |
| 20260901164606 | 77 | 0 | 1.0 | 6.0 | 0.00 | 0.00 | 0.00 | 41 | 1021.7 |
| 20260901163109 | 78 | 217 | 1.0 | 8.0 | 0.00 | 0.00 | 0.00 | 42 | 1021.7 |
| 20260901161613 | 78 | 29 | 1.0 | 3.0 | 0.00 | 0.00 | 0.00 | 37 | 1021.6 |
| 20260901160113 | 79 | 0 | 2.0 | 5.0 | 0.00 | 0.00 | 0.00 | 40 | 1021.5 |
| 20260901154605 | 80 | 0 | 1.0 | 4.0 | 0.00 | 0.00 | 0.00 | 37 | 1021.6 |
| 20260901153113 | 82 | 240 | 1.0 | 6.0 | 0.00 | 0.00 | 0.00 | 34 | 1021.5 |
| 20260901151607 | 83 | 241 | 1.0 | 5.0 | 0.00 | 0.00 | 0.00 | 34 | 1021.5 |
| 20260901150106 | 83 | 98 | 1.0 | 6.0 | 0.00 | 0.00 | 0.00 | 36 | 1021.4 |
| 20260901144611 | 83 | 209 | 3.0 | 8.0 | 0.00 | 0.00 | 0.00 | 33 | 1021.4 |
| 20260901143102 | 83 | 80 | 0.0 | 3.0 | 0.00 | 0.00 | 0.00 | 36 | 1021.5 |
| 20260901141607 | 82 | 58 | 2.0 | 6.0 | 0.00 | 0.00 | 0.00 | 34 | 1021.7 |
| 20260901140113 | 82 | 156 | 1.0 | 5.0 | 0.00 | 0.00 | 0.00 | 33 | 1021.7 |
| 20260901134612 | 82 | 236 | 1.0 | 4.0 | 0.00 | 0.00 | 0.00 | 33 | 1022.0 |
| 20260901133105 | 81 | 136 | 2.0 | 5.0 | 0.00 | 0.00 | 0.00 | 32 | 1022.0 |
| 20260901131606 | 81 | 0 | 1.0 | 8.0 | 0.00 | 0.00 | 0.00 | 35 | 1022.1 |
| 20260901130106 | 81 | 0 | 0.0 | 6.0 | 0.00 | 0.00 | 0.00 | 36 | 1022.3 |
| 20260901124609 | 81 | 212 | 2.0 | 4.0 | 0.00 | 0.00 | 0.00 | 36 | 1022.5 |
| 20260901123106 | 79 | 124 | 3.0 | 7.0 | 0.00 | 0.00 | 0.00 | 38 | 1022.7 |
| 20260901121604 | 78 | 94 | 2.0 | 6.0 | 0.00 | 0.00 | 0.00 | 38 | 1022.8 |
| 20260901120106 | 78 | 131 | 2.0 | 6.0 | 0.00 | 0.00 | 0.00 | 41 | 1022.8 |
| 20260901114647 | 77 | 95 | 2.0 | 6.0 | 0.00 | 0.00 | 0.00 | 39 | 1023.1 |
| 20260901113107 | 75 | 125 | 2.0 | 8.0 | 0.00 | 0.00 | 0.00 | 44 | 1023.1 |
| 20260901111607 | 75 | 126 | 3.0 | 6.0 | 0.00 | 0.00 | 0.00 | 43 | 1023.1 |
| 20260901110105 | 75 | 106 | 2.0 | 7.0 | 0.00 | 0.00 | 0.00 | 45 | 1023.3 |
| 20260901104604 | 75 | 111 | 1.0 | 5.0 | 0.00 | 0.00 | 0.00 | 47 | 1023.4 |
| 20260901103106 | 73 | 202 | 3.0 | 6.0 | 0.00 | 0.00 | 0.00 | 48 | 1023.5 |
| 20260901101604 | 73 | 153 | 3.0 | 7.0 | 0.00 | 0.00 | 0.00 | 48 | 1023.6 |
| 20260901100106 | 73 | 123 | 3.0 | 7.0 | 0.00 | 0.00 | 0.00 | 49 | 1023.6 |